| time (UTC) | temp C | wind direction | speed KPH | gust KPH | rain 1hr cm | rain 24hr cm | rain mn cm | humidity % | barometer mb |
| 20260504110703 | 9 | 75 | 4.8 | 4.8 | 0.00 | 0.00 | 0.00 | 64 | 985.4 |
| 20260504110203 | 9 | 75 | 4.8 | 4.8 | 0.00 | 0.00 | 0.00 | 64 | 985.4 |
| 20260504100203 | 9 | 90 | 4.8 | 8.0 | 0.00 | 0.00 | 0.00 | 68 | 985.4 |
| 20260504081704 | 8 | 88 | 4.8 | 8.0 | 0.00 | 0.00 | 0.00 | 74 | 985.7 |
| 20260504081204 | 8 | 92 | 4.8 | 4.8 | 0.00 | 0.00 | 0.00 | 74 | 985.7 |
| 20260504080703 | 8 | 95 | 3.2 | 4.8 | 0.00 | 0.00 | 0.00 | 73 | 985.8 |
| 20260504080203 | 8 | 89 | 4.8 | 11.3 | 0.00 | 0.00 | 0.00 | 73 | 985.7 |
| 20260504070204 | 8 | 81 | 4.8 | 8.0 | 0.00 | 0.00 | 0.00 | 72 | 985.8 |
| 20260504060204 | 8 | 88 | 4.8 | 9.7 | 0.00 | 0.00 | 0.00 | 68 | 985.9 |
| 20260504050704 | 8 | 86 | 4.8 | 8.0 | 0.00 | 0.00 | 0.00 | 59 | 985.9 |
| 20260504050204 | 8 | 93 | 4.8 | 8.0 | 0.00 | 0.00 | 0.00 | 58 | 985.9 |
| 20260504045703 | 8 | 85 | 3.2 | 8.0 | 0.00 | 0.00 | 0.00 | 57 | 985.9 |
| 20260504045203 | 8 | 105 | 3.2 | 8.0 | 0.00 | 0.00 | 0.00 | 55 | 986.0 |
| 20260504044703 | 8 | 57 | 3.2 | 4.8 | 0.00 | 0.00 | 0.00 | 54 | 986.0 |
| 20260504044203 | 8 | 88 | 4.8 | 8.0 | 0.00 | 0.00 | 0.00 | 53 | 986.1 |
| 20260504043704 | 8 | 88 | 4.8 | 9.7 | 0.00 | 0.00 | 0.00 | 52 | 986.2 |
| 20260504042703 | 8 | 91 | 4.8 | 8.0 | 0.00 | 0.00 | 0.00 | 51 | 986.2 |
| 20260504042204 | 8 | 73 | 8.0 | 11.3 | 0.00 | 0.00 | 0.00 | 50 | 986.2 |
| 20260504041704 | 8 | 95 | 4.8 | 4.8 | 0.00 | 0.00 | 0.00 | 51 | 986.1 |
| 20260504041204 | 8 | 88 | 3.2 | 4.8 | 0.00 | 0.00 | 0.00 | 50 | 986.1 |
| 20260504040703 | 8 | 84 | 4.8 | 8.0 | 0.00 | 0.00 | 0.00 | 50 | 986.1 |
| 20260504040203 | 8 | 88 | 6.4 | 9.7 | 0.00 | 0.00 | 0.00 | 49 | 986.1 |
| 20260504035704 | 8 | 91 | 8.0 | 9.7 | 0.00 | 0.00 | 0.00 | 48 | 986.0 |
| 20260504035204 | 8 | 83 | 8.0 | 9.7 | 0.00 | 0.00 | 0.00 | 48 | 986.0 |
| 20260504034703 | 7 | 88 | 3.2 | 8.0 | 0.00 | 0.00 | 0.00 | 54 | 986.0 |
| 20260504034204 | 7 | 91 | 3.2 | 8.0 | 0.00 | 0.00 | 0.00 | 54 | 986.0 |
| 20260504032704 | 6 | 88 | 1.6 | 3.2 | 0.00 | 0.00 | 0.00 | 58 | 986.1 |
| 20260504032204 | 6 | 93 | 0.0 | 4.8 | 0.00 | 0.00 | 0.00 | 62 | 986.1 |
| 20260504031204 | 7 | 86 | 0.0 | 1.6 | 0.00 | 0.00 | 0.00 | 52 | 986.0 |
| 20260504030704 | 7 | 108 | 0.0 | 1.6 | 0.00 | 0.00 | 0.00 | 52 | 986.0 |
| 20260504030204 | 7 | 107 | 0.0 | 1.6 | 0.00 | 0.00 | 0.00 | 53 | 986.0 |
| 20260504025203 | 7 | 73 | 0.0 | 1.6 | 0.00 | 0.00 | 0.00 | 50 | 986.0 |
| 20260504024703 | 7 | 123 | 1.6 | 3.2 | 0.00 | 0.00 | 0.00 | 49 | 986.0 |
| 20260504024203 | 7 | 85 | 1.6 | 3.2 | 0.00 | 0.00 | 0.00 | 50 | 986.1 |
| 20260504023703 | 7 | 98 | 1.6 | 3.2 | 0.00 | 0.00 | 0.00 | 49 | 986.2 |
| 20260504023203 | 6 | 92 | 0.0 | 3.2 | 0.00 | 0.00 | 0.00 | 53 | 986.2 |
| 20260504022704 | 6 | 135 | 1.6 | 3.2 | 0.00 | 0.00 | 0.00 | 53 | 986.2 |
| 20260504022203 | 6 | 95 | 0.0 | 3.2 | 0.00 | 0.00 | 0.00 | 52 | 986.2 |
| 20260504020703 | 6 | 110 | 1.6 | 3.2 | 0.00 | 0.00 | 0.00 | 53 | 986.3 |
| 20260504015203 | 6 | 88 | 0.0 | 4.8 | 0.00 | 0.00 | 0.00 | 60 | 986.4 |
| 20260504014704 | 6 | 85 | 1.6 | 3.2 | 0.00 | 0.00 | 0.00 | 53 | 986.3 |
| 20260504013703 | 6 | 318 | 3.2 | 4.8 | 0.00 | 0.00 | 0.00 | 55 | 986.3 |
| 20260504013203 | 5 | 76 | 1.6 | 3.2 | 0.00 | 0.00 | 0.00 | 56 | 986.3 |
| 20260504012703 | 5 | 117 | 0.0 | 3.2 | 0.00 | 0.00 | 0.00 | 61 | 986.1 |
| 20260504011703 | 5 | 42 | 0.0 | 1.6 | 0.00 | 0.00 | 0.00 | 61 | 986.1 |
| 20260504011204 | 5 | 82 | 0.0 | 1.6 | 0.00 | 0.00 | 0.00 | 64 | 986.1 |
| 20260504010704 | 5 | 174 | 3.2 | 4.8 | 0.00 | 0.00 | 0.00 | 63 | 986.1 |
| 20260504010203 | 6 | 97 | 1.6 | 3.2 | 0.00 | 0.00 | 0.00 | 59 | 985.9 |
| 20260504005703 | 6 | 93 | 0.0 | 3.2 | 0.00 | 0.00 | 0.00 | 59 | 985.8 |
| 20260504005204 | 6 | 88 | 0.0 | 1.6 | 0.00 | 0.00 | 0.00 | 59 | 985.7 |
| 20260504004704 | 6 | 75 | 1.6 | 1.6 | 0.00 | 0.00 | 0.00 | 59 | 985.6 |
| 20260504004204 | 6 | 90 | 0.0 | 1.6 | 0.00 | 0.00 | 0.00 | 58 | 985.6 |
| 20260504003704 | 6 | 128 | 0.0 | 1.6 | 0.00 | 0.00 | 0.00 | 59 | 985.5 |
| 20260504003203 | 6 | 110 | 0.0 | 1.6 | 0.00 | 0.00 | 0.00 | 58 | 985.5 |
| 20260504002204 | 7 | 169 | 0.0 | 1.6 | 0.00 | 0.00 | 0.00 | 56 | 985.4 |
| 20260504001703 | 7 | 169 | 1.6 | 3.2 | 0.00 | 0.00 | 0.00 | 55 | 985.3 |
| 20260504001204 | 7 | 265 | 1.6 | 3.2 | 0.00 | 0.00 | 0.00 | 54 | 985.3 |
| 20260504000703 | 7 | 113 | 1.6 | 3.2 | 0.00 | 0.00 | 0.00 | 54 | 985.2 |
| 20260503234704 | 9 | 186 | 3.2 | 9.7 | 0.00 | 0.00 | 0.00 | 46 | 985.0 |
| 20260503234203 | 9 | 255 | 0.0 | 3.2 | 0.00 | 0.00 | 0.00 | 46 | 985.0 |
| 20260503233704 | 9 | 239 | 3.2 | 8.0 | 0.00 | 0.00 | 0.00 | 46 | 984.9 |
| 20260503233204 | 10 | 119 | 0.0 | 3.2 | 0.00 | 0.00 | 0.00 | 45 | 984.9 |
| 20260503232704 | 10 | 213 | 1.6 | 4.8 | 0.00 | 0.00 | 0.00 | 44 | 984.9 |
| 20260503232204 | 10 | 219 | 3.2 | 9.7 | 0.00 | 0.00 | 0.00 | 43 | 984.9 |
| 20260503231703 | 10 | 237 | 6.4 | 12.9 | 0.00 | 0.00 | 0.00 | 42 | 984.8 |
| 20260503231203 | 10 | 213 | 4.8 | 12.9 | 0.00 | 0.00 | 0.00 | 42 | 984.8 |
| 20260503230704 | 10 | 140 | 1.6 | 4.8 | 0.00 | 0.00 | 0.00 | 42 | 984.8 |
| 20260503230204 | 10 | 107 | 3.2 | 12.9 | 0.00 | 0.00 | 0.00 | 42 | 984.8 |
| 20260503225704 | 10 | 108 | 3.2 | 11.3 | 0.00 | 0.00 | 0.00 | 43 | 984.8 |
| 20260503225204 | 10 | 152 | 3.2 | 11.3 | 0.00 | 0.00 | 0.00 | 44 | 984.8 |
| 20260503224203 | 11 | 97 | 3.2 | 8.0 | 0.00 | 0.00 | 0.00 | 42 | 984.8 |
| 20260503223703 | 11 | 198 | 3.2 | 11.3 | 0.00 | 0.00 | 0.00 | 42 | 984.9 |
| 20260503223203 | 11 | 171 | 3.2 | 14.5 | 0.00 | 0.00 | 0.00 | 43 | 984.9 |
| 20260503222703 | 10 | 149 | 3.2 | 11.3 | 0.00 | 0.00 | 0.00 | 43 | 984.9 |
| 20260503222204 | 10 | 108 | 4.8 | 14.5 | 0.00 | 0.00 | 0.00 | 44 | 984.9 |
| 20260503221703 | 11 | 205 | 3.2 | 8.0 | 0.00 | 0.00 | 0.00 | 46 | 984.9 |
| 20260503221204 | 11 | 99 | 1.6 | 4.8 | 0.00 | 0.00 | 0.00 | 45 | 984.9 |
| 20260503220703 | 11 | 117 | 3.2 | 4.8 | 0.00 | 0.00 | 0.00 | 45 | 984.9 |
| 20260503220204 | 11 | 118 | 3.2 | 8.0 | 0.00 | 0.00 | 0.00 | 46 | 984.9 |
| 20260503215704 | 11 | 207 | 1.6 | 4.8 | 0.00 | 0.00 | 0.00 | 46 | 984.9 |
| 20260503214703 | 11 | 184 | 4.8 | 11.3 | 0.00 | 0.00 | 0.00 | 46 | 984.8 |
| 20260503214203 | 11 | 153 | 1.6 | 8.0 | 0.00 | 0.00 | 0.00 | 45 | 984.7 |
| 20260503213704 | 11 | 134 | 1.6 | 4.8 | 0.00 | 0.00 | 0.00 | 45 | 984.7 |
| 20260503213203 | 11 | 228 | 1.6 | 8.0 | 0.00 | 0.00 | 0.00 | 45 | 984.7 |
| 20260503212204 | 10 | 190 | 1.6 | 8.0 | 0.00 | 0.00 | 0.00 | 46 | 984.8 |
| 20260503211703 | 10 | 248 | 3.2 | 8.0 | 0.00 | 0.00 | 0.00 | 46 | 984.8 |
| 20260503210203 | 10 | 101 | 3.2 | 8.0 | 0.00 | 0.00 | 0.00 | 46 | 984.8 |
| 20260503205703 | 10 | 92 | 4.8 | 9.7 | 0.00 | 0.00 | 0.00 | 47 | 984.8 |
| 20260503205204 | 10 | 132 | 3.2 | 9.7 | 0.00 | 0.00 | 0.00 | 47 | 984.9 |
| 20260503204703 | 10 | 193 | 3.2 | 4.8 | 0.00 | 0.00 | 0.00 | 47 | 984.9 |
| 20260503204204 | 10 | 127 | 1.6 | 4.8 | 0.00 | 0.00 | 0.00 | 47 | 984.9 |
| 20260503203204 | 10 | 95 | 3.2 | 9.7 | 0.00 | 0.00 | 0.00 | 47 | 985.0 |
| 20260503202703 | 10 | 255 | 1.6 | 8.0 | 0.00 | 0.00 | 0.00 | 47 | 984.9 |
| 20260503202203 | 10 | 88 | 3.2 | 9.7 | 0.00 | 0.00 | 0.00 | 47 | 985.0 |
| 20260503201204 | 10 | 78 | 3.2 | 11.3 | 0.00 | 0.00 | 0.00 | 46 | 985.0 |
| 20260503200703 | 10 | 199 | 4.8 | 11.3 | 0.00 | 0.00 | 0.00 | 45 | 985.0 |
| 20260503200204 | 10 | 117 | 4.8 | 8.0 | 0.00 | 0.00 | 0.00 | 47 | 985.0 |
| 20260503195704 | 10 | 99 | 3.2 | 11.3 | 0.00 | 0.00 | 0.00 | 47 | 985.1 |
| 20260503195203 | 10 | 244 | 0.0 | 9.7 | 0.00 | 0.00 | 0.00 | 47 | 985.3 |
| 20260503194703 | 9 | 68 | 3.2 | 11.3 | 0.00 | 0.00 | 0.00 | 47 | 985.2 |
| 20260503194203 | 9 | 237 | 4.8 | 12.9 | 0.00 | 0.00 | 0.00 | 47 | 985.3 |
| 20260503193704 | 9 | 247 | 8.0 | 14.5 | 0.00 | 0.00 | 0.00 | 48 | 985.4 |
| 20260503193203 | 9 | 227 | 4.8 | 9.7 | 0.00 | 0.00 | 0.00 | 48 | 985.4 |
| 20260503192703 | 9 | 102 | 3.2 | 8.0 | 0.00 | 0.00 | 0.00 | 47 | 985.5 |
| 20260503192204 | 10 | 92 | 4.8 | 9.7 | 0.00 | 0.00 | 0.00 | 47 | 985.5 |
| 20260503191704 | 10 | 174 | 3.2 | 11.3 | 0.00 | 0.00 | 0.00 | 47 | 985.6 |
| 20260503191204 | 10 | 221 | 4.8 | 11.3 | 0.00 | 0.00 | 0.00 | 47 | 985.5 |
| 20260503190703 | 10 | 248 | 4.8 | 11.3 | 0.00 | 0.00 | 0.00 | 47 | 985.5 |
| 20260503190204 | 9 | 252 | 4.8 | 12.9 | 0.00 | 0.00 | 0.00 | 47 | 985.6 |
| 20260503185703 | 10 | 108 | 4.8 | 9.7 | 0.00 | 0.00 | 0.00 | 46 | 985.6 |
| 20260503185204 | 10 | 111 | 4.8 | 8.0 | 0.00 | 0.00 | 0.00 | 46 | 985.7 |
| 20260503184704 | 10 | 231 | 4.8 | 12.9 | 0.00 | 0.00 | 0.00 | 46 | 985.7 |
| 20260503184204 | 10 | 109 | 4.8 | 14.5 | 0.00 | 0.00 | 0.00 | 47 | 985.8 |
| 20260503183704 | 10 | 178 | 3.2 | 9.7 | 0.00 | 0.00 | 0.00 | 47 | 985.7 |
| 20260503183203 | 10 | 115 | 3.2 | 14.5 | 0.00 | 0.00 | 0.00 | 46 | 985.8 |
| 20260503182704 | 10 | 229 | 4.8 | 12.9 | 0.00 | 0.00 | 0.00 | 45 | 985.8 |
| 20260503182204 | 9 | 233 | 8.0 | 14.5 | 0.00 | 0.00 | 0.00 | 46 | 985.8 |
| 20260503181703 | 9 | 190 | 4.8 | 12.9 | 0.00 | 0.00 | 0.00 | 47 | 985.8 |
| 20260503180703 | 8 | 200 | 4.8 | 20.9 | 0.00 | 0.00 | 0.00 | 47 | 985.8 |
| 20260503180203 | 9 | 115 | 8.0 | 14.5 | 0.00 | 0.00 | 0.00 | 47 | 985.8 |
| 20260503175203 | 9 | 229 | 4.8 | 11.3 | 0.00 | 0.00 | 0.00 | 48 | 985.9 |
| 20260503174703 | 9 | 201 | 4.8 | 11.3 | 0.00 | 0.00 | 0.00 | 47 | 985.9 |
| 20260503174204 | 8 | 182 | 3.2 | 9.7 | 0.00 | 0.00 | 0.00 | 47 | 985.9 |
| 20260503173703 | 8 | 141 | 3.2 | 9.7 | 0.00 | 0.00 | 0.00 | 47 | 985.8 |
| 20260503173203 | 8 | 203 | 9.7 | 16.1 | 0.00 | 0.00 | 0.00 | 47 | 985.9 |
| 20260503172203 | 8 | 108 | 3.2 | 14.5 | 0.00 | 0.00 | 0.00 | 49 | 986.0 |
| 20260503171203 | 8 | 154 | 3.2 | 11.3 | 0.00 | 0.00 | 0.00 | 48 | 986.0 |
| 20260503170704 | 8 | 233 | 4.8 | 12.9 | 0.00 | 0.00 | 0.00 | 48 | 985.9 |
| 20260503160204 | 11 | 127 | 8.0 | 14.5 | 0.00 | 0.00 | 0.00 | 44 | 986.1 |
| 20260503150704 | 8 | 92 | 4.8 | 14.5 | 0.00 | 0.00 | 0.00 | 47 | 986.3 |
| 20260503150205 | 9 | 193 | 3.2 | 14.5 | 0.00 | 0.00 | 0.00 | 45 | 986.4 |
| 20260503140204 | 8 | 163 | 3.2 | 11.3 | 0.00 | 0.00 | 0.00 | 65 | 986.9 |
| 20260503131204 | 7 | 174 | 3.2 | 11.3 | 0.00 | 0.00 | 0.00 | 70 | 987.1 |
| 20260503130703 | 7 | 187 | 3.2 | 8.0 | 0.00 | 0.00 | 0.00 | 72 | 987.2 |
| 20260503130204 | 7 | 214 | 3.2 | 9.7 | 0.00 | 0.00 | 0.00 | 72 | 987.2 |
| 20260503120203 | 5 | 208 | 1.6 | 4.8 | 0.00 | 0.00 | 0.00 | 86 | 987.2 |